Weather History for Columbus, GA

Change the Weather History Date:

Tuesday, October 9, 2012

  Actual Average Record
Temperature  
Mean Temperature 66 °F 69 °F  
Max Temperature 75 °F 79 °F 90 °F (1990)
Min Temperature 57 °F 58 °F 40 °F (2000)
Degree Days  
Heating Degree Days 0 1  
Month to date heating degree days 0 9  
Since 1 July heating degree days 0 12  
Cooling Degree Days 1 5  
Month to date cooling degree days 50 53  
Year to date cooling degree days 2540 2275  
Growing Degree Days 15 (Base 50)    
Moisture  
Dew Point 53 °F    
Average Humidity 68    
Maximum Humidity 87    
Minimum Humidity 49    
Precipitation  
Precipitation 0.00 in 0.09 in 1.64 in (1966)
Month to date precipitation 0.97 0.80  
Year to date precipitation 28.78 36.60  
Sea Level Pressure  
Sea Level Pressure 30.09 in    
Wind  
Wind Speed 3 mph (ENE)    
Max Wind Speed 12 mph    
Max Gust Speed 16 mph    
Visibility 10 miles    
Events      
T = Trace of Precipitation, MM = Missing Value Source: NWS Daily Summary

Daily Weather History Graph

Daily Weather History Graph

Search for Another Location

Airport:

Trip Planner

Search our weather history database for the weather conditions in past years. The results will help you decide how hot, cold, wet, or windy it might be!

Date:

Astronomy

Oct. 09, 2012 Rise Set
Actual Time 7:39 AM EDT 7:13 PM EDT
Civil Twilight 7:15 AM EDT 7:38 PM EDT
Nautical Twilight 6:46 AM EDT 8:06 PM EDT
Astronomical Twilight 6:18 AM EDT 8:35 PM EDT
Moon 1:35 AM EDT (10/9) 3:22 PM EDT (10/9)
Length of Visible Light 12h 23m
Length of Day
11h 33m
Last Quarter, 37% of the Moon is Illuminated
Oct 9
Last Quarter
Oct 15
New
Oct 21
First Quarter
Oct 29
Full
Nov 6
Last Quarter

Hourly Weather History & Observations

Time (EDT) Temp. Dew Point Humidity Pressure Visibility Wind Dir Wind Speed Gust Speed Precip Events Conditions
12:51 AM 57.2 °F 53.6 °F 88% 30.11 in 10.0 mi NE 4.6 mph - N/A   Partly Cloudy
1:51 AM 57.9 °F 52.0 °F 81% 30.10 in 10.0 mi NE 5.8 mph - N/A   Overcast
2:51 AM 57.9 °F 52.0 °F 81% 30.10 in 10.0 mi NE 4.6 mph - N/A   Overcast
3:51 AM 57.2 °F 51.8 °F 82% 30.09 in 10.0 mi NE 4.6 mph - N/A   Overcast
4:22 AM 57.2 °F 51.8 °F 82% 30.10 in 10.0 mi ENE 4.6 mph - N/A   Overcast
4:51 AM 57.0 °F 52.0 °F 83% 30.09 in 10.0 mi ENE 4.6 mph - N/A   Overcast
5:51 AM 57.0 °F 52.0 °F 83% 30.09 in 10.0 mi ENE 3.5 mph - N/A   Overcast
6:51 AM 57.0 °F 51.1 °F 81% 30.11 in 10.0 mi East 5.8 mph - N/A   Overcast
7:51 AM 57.2 °F 51.8 °F 82% 30.13 in 10.0 mi East 6.9 mph - N/A   Overcast
8:51 AM 57.0 °F 50.0 °F 77% 30.13 in 10.0 mi East 8.1 mph - N/A   Overcast
9:51 AM 59.0 °F 50.0 °F 72% 30.14 in 10.0 mi East 6.9 mph - N/A   Overcast
10:51 AM 60.1 °F 51.1 °F 72% 30.14 in 10.0 mi East 4.6 mph - N/A   Mostly Cloudy
11:51 AM 64.0 °F 53.1 °F 67% 30.14 in 10.0 mi Calm Calm - N/A   Overcast
12:29 PM 66.2 °F 53.6 °F 64% 30.13 in 10.0 mi Calm Calm - N/A   Overcast
12:51 PM 69.1 °F 54.0 °F 58% 30.12 in 10.0 mi Calm Calm - N/A   Mostly Cloudy
1:01 PM 68.0 °F 53.6 °F 60% 30.12 in 10.0 mi Calm Calm - N/A   Mostly Cloudy
1:32 PM 69.8 °F 53.6 °F 56% 30.11 in 10.0 mi WNW 6.9 mph - N/A   Scattered Clouds
1:51 PM 69.1 °F 54.0 °F 58% 30.09 in 10.0 mi South 4.6 mph - N/A   Mostly Cloudy
2:51 PM 72.0 °F 55.0 °F 55% 30.07 in 10.0 mi SW 4.6 mph - N/A   Mostly Cloudy
3:03 PM 71.6 °F 53.6 °F 53% 30.07 in 10.0 mi SW 4.6 mph - N/A   Scattered Clouds
3:51 PM 73.0 °F 53.1 °F 49% 30.06 in 10.0 mi Calm Calm - N/A   Scattered Clouds
4:51 PM 72.0 °F 53.1 °F 51% 30.04 in 10.0 mi NNE 3.5 mph - N/A   Scattered Clouds
5:51 PM 73.4 °F 53.6 °F 50% 30.05 in 10.0 mi North 3.5 mph - N/A   Partly Cloudy
6:51 PM 71.1 °F 53.1 °F 53% 30.04 in 10.0 mi SSW 3.5 mph - N/A   Clear
7:51 PM 66.9 °F 55.0 °F 66% 30.04 in 10.0 mi Calm Calm - N/A   Clear
8:51 PM 66.0 °F 55.0 °F 68% 30.06 in 10.0 mi Calm Calm - N/A   Clear
9:51 PM 64.0 °F 55.9 °F 75% 30.07 in 10.0 mi Calm Calm - N/A   Clear
10:51 PM 62.1 °F 55.0 °F 78% 30.09 in 10.0 mi Calm Calm - N/A   Clear
11:51 PM 59.0 °F 55.0 °F 87% 30.09 in 10.0 mi ESE 3.5 mph - N/A   Clear